Find Starlink 3232

NORAD ID: 50809 Int'l Des: 2022-001 Owner: SPXS Country: US Constellation: starlink operational
LEOCIRCULAR

現在のビュー

3D地球を読み込み中...

About Starlink 3232

Starlink 3232 (NORAD 50809) is a starlink constellation satellite (v1.5) launched Jan 6, 2022 by SPXS of US. It operates in LEO, CIRCULAR orbit with a mass of 297.00 kg.

次回通過

Passes for default location (London). Set your location on the main map for personalized predictions.

高度履歴

Loading altitude history...

軌道要素

1 50809U 22001G 26262.81574106 .00000867 00000-0 39690-4 0 9999
2 50809 53.1612 354.9640 0001159 71.9824 288.1303 15.31703650260026
Epoch: Sep 19, 2026 • Age: 13 hours

現在のステータス

高度 476.3 km
遠地点 / 近地点 N/A
速度 7.63 km/s
衛星直下点 52.27°N, 59.3°W
打ち上げ日 Jan 6, 2022
運用期間 4.7 years
タイプ internet

技術仕様

分類 Payload
質量 297.00 kg
乾燥質量 275.00 kg
長さ 0.20 m
スパン 9.00 m
形状 ? Box + pan
製造者 SPXS
バスタイプ Starlink
フェーズステータス In Orbit
所有者/国 SPXS/US

Most Searched